Tracking 18823 objects as of 22-October-2017
HD Live streaming from Space Station
objects crossing your sky now

COSMOS 1922

Track COSMOS 1922 now!
COSMOS 1922 is classified as:


NORAD ID: 18881
Int'l Code: 1988-013A
Perigee: 5,661.7 km
Apogee: 34,739.0 km
Inclination: 68.8 °
Period: 718.4 minutes
Semi major axis: 26571 km
RCS: 12.0457 m2 (large)
Launch date: February 26, 1988
Source: Commonwealth of Independent States (former USSR) (CIS)
Launch site: PLESETSK MISSILE AND SPACE COMPLEX (PKMTR)
aabbcc
Your satellite tracking list
Your tracking list is empty





NASA's NSSDC Master Catalog

Two Line Element Set (TLE):
1 18881U 88013A   17295.11990427 -.00000729 +00000-0 +00000-0 0  9992
2 18881 068.8161 225.1744 5471565 126.5606 297.1965 02.00439411217151
Source of the keplerian elements: AFSPC